TimeCDT,TemperatureF,Dew PointF,Humidity,Sea Level PressureIn,VisibilityMPH,Wind Direction,Wind SpeedMPH,Gust SpeedMPH,PrecipitationIn,Events,Conditions,WindDirDegrees,DateUTC
12:15 AM,55.4,42.8,63,29.89,10.0,WSW,5.8,-,N/A,,Scattered Clouds,240,2014-05-04 05:15:00
12:35 AM,53.6,42.8,67,29.90,10.0,WSW,10.4,-,N/A,,Scattered Clouds,240,2014-05-04 05:35:00
12:55 AM,55.4,41.0,58,29.90,10.0,West,8.1,17.3,N/A,,Overcast,260,2014-05-04 05:55:00
1:15 AM,55.4,42.8,63,29.90,10.0,West,5.8,-,N/A,,Overcast,270,2014-05-04 06:15:00
1:35 AM,55.4,41.0,58,29.89,10.0,WNW,5.8,-,N/A,,Overcast,300,2014-05-04 06:35:00
1:55 AM,57.2,41.0,55,29.89,10.0,WNW,6.9,-,N/A,,Overcast,300,2014-05-04 06:55:00
2:15 AM,55.4,41.0,58,29.89,10.0,WNW,5.8,-,N/A,,Overcast,300,2014-05-04 07:15:00
2:35 AM,55.4,41.0,58,29.90,10.0,WNW,5.8,-,N/A,,Overcast,290,2014-05-04 07:35:00
2:55 AM,55.4,42.8,63,29.90,10.0,West,5.8,-,N/A,,Overcast,270,2014-05-04 07:55:00
3:15 AM,55.4,41.0,58,29.90,10.0,WNW,6.9,-,N/A,,Overcast,290,2014-05-04 08:15:00
3:35 AM,55.4,39.2,54,29.91,10.0,WNW,9.2,18.4,N/A,,Overcast,300,2014-05-04 08:35:00
3:55 AM,55.4,39.2,54,29.91,10.0,West,6.9,-,N/A,,Mostly Cloudy,280,2014-05-04 08:55:00
4:15 AM,53.6,39.2,58,29.91,10.0,West,5.8,-,N/A,,Mostly Cloudy,270,2014-05-04 09:15:00
4:35 AM,53.6,39.2,58,29.92,10.0,West,6.9,-,N/A,,Mostly Cloudy,280,2014-05-04 09:35:00
4:55 AM,51.8,39.2,62,29.92,10.0,WNW,6.9,-,N/A,,Scattered Clouds,290,2014-05-04 09:55:00
5:15 AM,51.8,39.2,62,29.94,10.0,West,4.6,-,N/A,,Clear,270,2014-05-04 10:15:00
5:35 AM,50.0,39.2,66,29.95,10.0,West,5.8,-,N/A,,Clear,280,2014-05-04 10:35:00
5:55 AM,50.0,37.4,62,29.95,10.0,NW,5.8,-,N/A,,Scattered Clouds,310,2014-05-04 10:55:00
6:15 AM,51.8,37.4,58,29.96,10.0,WNW,5.8,-,N/A,,Mostly Cloudy,300,2014-05-04 11:15:00
6:35 AM,51.8,37.4,58,29.97,10.0,West,4.6,-,N/A,,Overcast,260,2014-05-04 11:35:00
6:55 AM,51.8,37.4,58,29.97,10.0,WSW,3.5,-,N/A,,Overcast,250,2014-05-04 11:55:00
7:15 AM,53.6,39.2,58,29.98,10.0,West,4.6,-,N/A,,Mostly Cloudy,260,2014-05-04 12:15:00
7:35 AM,53.6,37.4,54,29.99,10.0,NW,8.1,-,N/A,,Clear,310,2014-05-04 12:35:00
7:55 AM,55.4,33.8,44,29.99,10.0,NNW,10.4,16.1,N/A,,Mostly Cloudy,330,2014-05-04 12:55:00
8:15 AM,55.4,33.8,44,30.01,10.0,NNW,8.1,-,N/A,,Overcast,340,2014-05-04 13:15:00
8:35 AM,55.4,33.8,44,30.01,10.0,NNW,8.1,-,N/A,,Overcast,330,2014-05-04 13:35:00
8:55 AM,55.4,33.8,44,30.01,10.0,NNW,8.1,-,N/A,,Overcast,340,2014-05-04 13:55:00
9:15 AM,55.4,33.8,44,30.03,10.0,NNW,9.2,-,N/A,,Overcast,330,2014-05-04 14:15:00
9:35 AM,57.2,33.8,41,30.03,10.0,North,11.5,-,N/A,,Mostly Cloudy,350,2014-05-04 14:35:00
9:55 AM,57.2,32.0,38,30.03,10.0,North,11.5,18.4,N/A,,Scattered Clouds,10,2014-05-04 14:55:00
10:15 AM,55.4,33.8,44,30.04,10.0,North,12.7,19.6,N/A,,Scattered Clouds,10,2014-05-04 15:15:00
10:35 AM,55.4,33.8,44,30.04,10.0,North,12.7,18.4,N/A,,Scattered Clouds,10,2014-05-04 15:35:00
10:55 AM,55.4,33.8,44,30.05,10.0,North,12.7,19.6,N/A,,Clear,10,2014-05-04 15:55:00
11:15 AM,55.4,32.0,41,30.05,10.0,North,16.1,19.6,N/A,,Clear,10,2014-05-04 16:15:00
11:35 AM,55.4,30.2,38,30.06,10.0,North,10.4,16.1,N/A,,Clear,350,2014-05-04 16:35:00
11:55 AM,55.4,32.0,41,30.05,10.0,North,11.5,18.4,N/A,,Clear,10,2014-05-04 16:55:00
12:15 PM,53.6,30.2,41,30.08,10.0,North,11.5,17.3,N/A,,Scattered Clouds,10,2014-05-04 17:15:00
12:35 PM,53.6,30.2,41,30.08,10.0,NNW,6.9,-,N/A,,Mostly Cloudy,340,2014-05-04 17:35:00
12:55 PM,55.4,32.0,41,30.08,10.0,North,10.4,-,N/A,,Scattered Clouds,10,2014-05-04 17:55:00
1:15 PM,55.4,32.0,41,30.08,10.0,NNE,8.1,-,N/A,,Clear,30,2014-05-04 18:15:00
1:35 PM,55.4,32.0,41,30.06,10.0,NNE,11.5,16.1,N/A,,Clear,30,2014-05-04 18:35:00
1:55 PM,55.4,30.2,38,30.07,10.0,North,8.1,-,N/A,,Scattered Clouds,10,2014-05-04 18:55:00
2:15 PM,55.4,30.2,38,30.06,10.0,North,11.5,-,N/A,,Scattered Clouds,10,2014-05-04 19:15:00
2:35 PM,55.4,28.4,36,30.05,10.0,NNE,13.8,-,N/A,,Clear,30,2014-05-04 19:35:00
2:55 PM,55.4,30.2,38,30.04,10.0,North,10.4,-,N/A,,Scattered Clouds,10,2014-05-04 19:55:00
3:15 PM,53.6,32.0,44,30.05,10.0,NE,15.0,18.4,N/A,,Scattered Clouds,40,2014-05-04 20:15:00
3:35 PM,55.4,28.4,36,30.06,10.0,North,12.7,-,N/A,,Scattered Clouds,10,2014-05-04 20:35:00
3:55 PM,55.4,26.6,33,30.04,10.0,NNE,12.7,19.6,N/A,,Clear,30,2014-05-04 20:55:00
4:15 PM,55.4,23.0,29,30.04,10.0,NNE,13.8,-,N/A,,Clear,30,2014-05-04 21:15:00
4:35 PM,53.6,21.2,28,30.05,10.0,NNE,12.7,19.6,N/A,,Clear,20,2014-05-04 21:35:00
4:55 PM,53.6,21.2,28,30.05,10.0,NNE,12.7,-,N/A,,Clear,20,2014-05-04 21:55:00
5:15 PM,53.6,21.2,28,30.05,10.0,NNE,16.1,-,N/A,,Clear,30,2014-05-04 22:15:00
5:35 PM,53.6,21.2,28,30.05,10.0,NE,10.4,-,N/A,,Clear,40,2014-05-04 22:35:00
5:55 PM,53.6,21.2,28,30.05,10.0,NE,11.5,-,N/A,,Clear,40,2014-05-04 22:55:00
6:15 PM,53.6,21.2,28,30.05,10.0,NE,10.4,-,N/A,,Clear,40,2014-05-04 23:15:00
6:35 PM,53.6,23.0,30,30.05,10.0,NNE,11.5,-,N/A,,Clear,30,2014-05-04 23:35:00
6:55 PM,51.8,23.0,33,30.06,10.0,NNE,9.2,-,N/A,,Clear,30,2014-05-04 23:55:00
7:15 PM,51.8,23.0,33,30.07,10.0,NE,8.1,-,N/A,,Clear,50,2014-05-05 00:15:00
7:35 PM,51.8,23.0,33,30.07,10.0,NE,8.1,-,N/A,,Clear,40,2014-05-05 00:35:00
7:55 PM,50.0,24.8,37,30.08,10.0,NE,5.8,-,N/A,,Clear,40,2014-05-05 00:55:00
8:15 PM,48.2,26.6,43,30.08,10.0,ENE,3.5,-,N/A,,Clear,60,2014-05-05 01:15:00
8:35 PM,46.4,26.6,46,30.07,10.0,NE,5.8,-,N/A,,Clear,40,2014-05-05 01:35:00
8:55 PM,46.4,26.6,46,30.08,10.0,NE,6.9,-,N/A,,Clear,40,2014-05-05 01:55:00
9:15 PM,46.4,26.6,46,30.07,10.0,NE,8.1,-,N/A,,Clear,50,2014-05-05 02:15:00
9:35 PM,46.4,26.6,46,30.07,10.0,NE,10.4,-,N/A,,Clear,50,2014-05-05 02:35:00
9:55 PM,46.4,26.6,46,30.06,10.0,NE,10.4,-,N/A,,Clear,40,2014-05-05 02:55:00
10:15 PM,46.4,26.6,46,30.07,10.0,ENE,9.2,-,N/A,,Clear,60,2014-05-05 03:15:00
10:35 PM,46.4,26.6,46,30.06,10.0,NE,9.2,-,N/A,,Scattered Clouds,40,2014-05-05 03:35:00
10:55 PM,46.4,26.6,46,30.07,10.0,NE,9.2,-,N/A,,Scattered Clouds,50,2014-05-05 03:55:00
11:15 PM,46.4,28.4,50,30.08,10.0,ENE,5.8,-,N/A,,Clear,60,2014-05-05 04:15:00
11:35 PM,46.4,28.4,50,30.05,10.0,ENE,9.2,-,N/A,,Scattered Clouds,70,2014-05-05 04:35:00
11:55 PM,44.6,28.4,53,30.03,10.0,ENE,9.2,-,N/A,,Clear,70,2014-05-05 04:55:00